Location: Newark
(42.8481°N, 0.4872°E)
Time: 08:43:17
(UTC+00:00)

SR - Pass Details

Date: 07 November 2020
Orbit: 579 x 876 km, 66.7° (Epoch: 29 November)

Event Time Altitude Azimuth Distance (km) Brightness Sun altitude
Rises 09:37:42 0° 317° (NW) 3,149 ? 24.2°
Reaches altitude 10° 09:40:19 10° 304° (NW) 2,275 ? 24.4°
Maximum altitude 09:44:34 26° 250° (WSW) 1,521 ? 24.9°
Drops below altitude 10° 09:49:04 10° 196° (SSW) 2,414 ? 25.3°
Sets 09:51:57 0° 184° (S) 3,382 ? 25.5°
